Location: Boiro
(42.6475°N, 8.8834°W)
Time: 00:08:56
(UTC+01:00)

S-56A Canister/Altair - Pass Details

Date: 02 December 2021
Orbit: 634 x 2499 km, 38.9° (Epoch: 26 January)

Event Time Altitude Azimuth Distance (km) Brightness Sun altitude
Exits shadow 05:32:07 22° 122° (ESE) 1,500 9.4 -35.2°
Drops below altitude 10° 05:33:43 10° 115° (ESE) 2,080 10.4 -34.9°
Sets 05:35:52 0° 110° (ESE) 2,934 11.4 -34.5°
